Terug naar catalogus

STARLINK-4005

ActiefCommunicatieVLEO
NORAD 52686·PAYLOAD·🇺🇸 United States

Gelanceerd May 18, 2022 vanaf Cape Canaveral Space Force Station

Loading…

Volgende Passages (komende 24 uur)

TLE

VersSource: CelesTrak SupGP

Epoch: Sep 14, 2026, 21:02 UTC

1 52686C 22053AG  26257.87687500  .00204880  00000+0  76354-2 0  2577
2 52686  53.1587  13.1868 0001240  81.3199 197.6943 15.26808786    14

Volg STARLINK-4005 in realtime met AllMySat

Download on the App Store